CW2157 Weather Reports


time (UTC)temp
C
wind
direction
speed
KPH
gust
KPH
rain 1hr
cm
rain 24hr
cm
rain mn
cm
humidity
%
barometer
mb
20210920045705 18 115 0.0 1.6 0.00 0.00 0.00 87 1022.4
20210920045205 18 115 1.6 3.2 0.00 0.00 0.00 87 1022.4
20210920044704 18 115 1.6 3.2 0.00 0.00 0.00 88 1022.4
20210920044204 18 115 0.0 3.2 0.00 0.00 0.00 87 1022.4
20210920043704 18 115 0.0 4.8 0.00 0.00 0.00 87 1022.5
20210920043204 18 114 1.6 3.2 0.00 0.00 0.00 87 1022.5
20210920042704 18 114 1.6 3.2 0.00 0.00 0.00 87 1022.5
20210920042204 18 114 1.6 4.8 0.00 0.00 0.00 87 1022.4
20210920041704 18 114 1.6 4.8 0.00 0.00 0.00 87 1022.4
20210920041205 18 113 3.2 4.8 0.00 0.00 0.00 87 1022.4
20210920040705 18 101 1.6 4.8 0.00 0.00 0.00 87 1022.3
20210920040205 18 99 3.2 4.8 0.00 0.00 0.00 87 1022.3
20210920035705 18 104 3.2 4.8 0.00 0.00 0.00 87 1022.2
20210920035205 18 96 3.2 4.8 0.00 0.00 0.00 86 1022.2
20210920034705 18 102 3.2 4.8 0.00 0.00 0.00 87 1022.3
20210920034205 18 93 1.6 9.7 0.00 0.00 0.00 86 1022.2
20210920033705 18 102 3.2 12.9 0.00 0.00 0.00 86 1022.2
20210920033205 18 101 3.2 4.8 0.00 0.00 0.00 86 1022.2
20210920032705 18 98 1.6 4.8 0.00 0.00 0.00 86 1022.1
20210920032205 18 98 3.2 9.7 0.00 0.00 0.00 86 1022.1
20210920031705 18 78 1.6 3.2 0.00 0.00 0.00 86 1022.0
20210920031204 18 77 1.6 4.8 0.00 0.00 0.00 84 1022.0
20210920030704 19 77 1.6 4.8 0.00 0.00 0.00 84 1022.1
20210920030205 19 75 1.6 4.8 0.00 0.00 0.00 85 1022.0
20210920025705 19 74 3.2 4.8 0.00 0.00 0.00 84 1022.0
20210920025205 19 97 3.2 4.8 0.00 0.00 0.00 84 1022.0
20210920024705 19 97 1.6 4.8 0.00 0.00 0.00 83 1022.0
20210920024205 19 97 3.2 4.8 0.00 0.00 0.00 83 1021.9
20210920023705 19 117 3.2 4.8 0.00 0.00 0.00 84 1021.8
20210920023205 19 120 4.8 9.7 0.00 0.00 0.00 83 1021.8
20210920022705 19 116 3.2 9.7 0.00 0.00 0.00 82 1021.7
20210920022205 19 94 4.8 9.7 0.00 0.00 0.00 82 1021.6
20210920021704 19 94 4.8 12.9 0.00 0.00 0.00 83 1021.6
20210920021204 19 99 4.8 9.7 0.00 0.00 0.00 82 1021.6
20210920020704 19 104 3.2 4.8 0.00 0.00 0.00 83 1021.5
20210920020204 19 103 3.2 4.8 0.00 0.00 0.00 83 1021.5
20210920015705 19 99 1.6 4.8 0.00 0.00 0.00 85 1021.4
20210920015205 18 93 4.8 9.7 0.00 0.00 0.00 84 1021.4
20210920014704 18 81 3.2 4.8 0.00 0.00 0.00 85 1021.2
20210920014204 18 68 3.2 4.8 0.00 0.00 0.00 85 1021.1
20210920013705 18 55 1.6 3.2 0.00 0.00 0.00 85 1021.0
20210920013204 18 55 0.0 1.6 0.00 0.00 0.00 82 1020.9
20210920012704 18 55 1.6 3.2 0.00 0.00 0.00 80 1020.7
20210920012205 18 55 1.6 3.2 0.00 0.00 0.00 80 1020.7
20210920011705 18 55 1.6 3.2 0.00 0.00 0.00 80 1020.7
20210920011205 18 55 1.6 3.2 0.00 0.00 0.00 80 1020.7
20210920010705 18 55 1.6 3.2 0.00 0.00 0.00 80 1020.7
20210920010204 18 55 1.6 3.2 0.00 0.00 0.00 81 1020.7
20210920005705 18 55 1.6 4.8 0.00 0.00 0.00 81 1020.7
20210920005205 18 55 3.2 4.8 0.00 0.00 0.00 81 1020.7
20210920004704 18 46 1.6 4.8 0.00 0.00 0.00 77 1020.6
20210920004205 18 27 3.2 4.8 0.00 0.00 0.00 77 1020.6
20210920003704 18 27 1.6 3.2 0.00 0.00 0.00 76 1020.6
20210920003204 18 26 1.6 3.2 0.00 0.00 0.00 76 1020.5
20210920002705 18 26 0.0 3.2 0.00 0.00 0.00 75 1020.4
20210920002206 18 26 0.0 1.6 0.00 0.00 0.00 74 1020.3
20210920001705 19 27 0.0 1.6 0.00 0.00 0.00 73 1020.1
20210920001204 19 26 0.0 4.8 0.00 0.00 0.00 74 1020.1
20210920000705 19 26 0.0 1.6 0.00 0.00 0.00 73 1020.1
20210920000205 20 27 1.6 1.6 0.00 0.00 0.00 72 1020.1
20210919235706 20 27 0.0 3.2 0.00 0.00 0.00 71 1020.0
20210919235205 20 27 0.0 3.2 0.00 0.00 0.00 71 1020.0
20210919234705 20 27 1.6 3.2 0.00 0.00 0.00 70 1020.0
20210919234205 20 26 1.6 3.2 0.00 0.00 0.00 70 1019.9
20210919233705 20 27 1.6 3.2 0.00 0.00 0.00 69 1019.9
20210919233205 21 27 0.0 0.0 0.00 0.00 0.00 68 1019.8
20210919232705 21 27 0.0 1.6 0.00 0.00 0.00 68 1019.7
20210919232205 21 26 0.0 3.2 0.00 0.00 0.00 68 1019.6
20210919231705 21 27 0.0 4.8 0.00 0.00 0.00 67 1019.6
20210919231205 22 27 1.6 4.8 0.00 0.00 0.00 66 1019.5
20210919230705 22 27 1.6 4.8 0.00 0.00 0.00 65 1019.5
20210919230205 22 25 1.6 4.8 0.00 0.00 0.00 64 1019.5
20210919225705 22 41 1.6 3.2 0.00 0.00 0.00 63 1019.4
20210919225204 22 41 1.6 4.8 0.00 0.00 0.00 63 1019.4
20210919224704 22 41 3.2 4.8 0.00 0.00 0.00 62 1019.5
20210919224204 23 39 1.6 4.8 0.00 0.00 0.00 62 1019.4
20210919223704 23 39 3.2 4.8 0.00 0.00 0.00 60 1019.4
20210919223204 23 39 3.2 4.8 0.00 0.00 0.00 60 1019.4
20210919222704 23 39 3.2 4.8 0.00 0.00 0.00 59 1019.4
20210919222205 23 37 3.2 4.8 0.00 0.00 0.00 59 1019.4
20210919221705 23 38 1.6 4.8 0.00 0.00 0.00 58 1019.4
20210919221205 23 38 3.2 8.0 0.00 0.00 0.00 57 1019.3
20210919220705 23 42 4.8 9.7 0.00 0.00 0.00 56 1019.2
20210919220205 24 39 4.8 8.0 0.00 0.00 0.00 56 1019.3
20210919215705 24 37 4.8 12.9 0.00 0.00 0.00 56 1019.2
20210919215204 24 24 6.4 9.7 0.00 0.00 0.00 54 1019.2
20210919214704 24 44 4.8 11.3 0.00 0.00 0.00 54 1019.1
20210919214205 24 56 8.0 12.9 0.00 0.00 0.00 52 1019.1
20210919213705 24 54 8.0 11.3 0.00 0.00 0.00 54 1019.1
20210919213205 25 60 6.4 14.5 0.00 0.00 0.00 52 1019.1
20210919212704 25 53 8.0 14.5 0.00 0.00 0.00 53 1019.1
20210919212204 25 55 9.7 19.3 0.00 0.00 0.00 52 1019.1
20210919211704 25 43 8.0 12.9 0.00 0.00 0.00 50 1019.1
20210919211205 25 27 8.0 14.5 0.00 0.00 0.00 48 1019.1
20210919210705 25 52 4.8 9.7 0.00 0.00 0.00 47 1019.1
20210919210205 25 43 6.4 9.7 0.00 0.00 0.00 46 1019.1
20210919205705 26 32 4.8 14.5 0.00 0.00 0.00 46 1019.1
20210919205204 26 51 11.3 16.1 0.00 0.00 0.00 48 1019.1
20210919204704 26 6 6.4 12.9 0.00 0.00 0.00 47 1019.1
20210919204204 26 10 8.0 19.3 0.00 0.00 0.00 47 1019.2
20210919203705 26 349 8.0 16.1 0.00 0.00 0.00 45 1019.2
20210919203204 26 35 4.8 12.9 0.00 0.00 0.00 45 1019.3
20210919202705 26 31 11.3 20.9 0.00 0.00 0.00 46 1019.3
20210919202204 26 23 9.7 19.3 0.00 0.00 0.00 47 1019.4
20210919201704 26 39 9.7 16.1 0.00 0.00 0.00 46 1019.5
20210919201205 26 42 9.7 19.3 0.00 0.00 0.00 46 1019.5
20210919200705 26 16 8.0 14.5 0.00 0.00 0.00 48 1019.5
20210919200204 26 6 8.0 16.1 0.00 0.00 0.00 49 1019.6
20210919195705 26 19 9.7 19.3 0.00 0.00 0.00 48 1019.6
20210919195205 26 32 9.7 16.1 0.00 0.00 0.00 48 1019.7
20210919194705 26 339 8.0 16.1 0.00 0.00 0.00 48 1019.7
20210919194205 26 352 8.0 19.3 0.00 0.00 0.00 46 1019.8
20210919193705 26 20 11.3 19.3 0.00 0.00 0.00 48 1019.8
20210919193204 26 20 8.0 22.5 0.00 0.00 0.00 50 1019.9
20210919192704 26 12 11.3 20.9 0.00 0.00 0.00 53 1019.9
20210919192204 26 52 9.7 19.3 0.00 0.00 0.00 50 1019.9
20210919191704 26 10 8.0 19.3 0.00 0.00 0.00 52 1019.9
20210919191204 26 16 9.7 19.3 0.00 0.00 0.00 54 1020.0
20210919190704 26 340 8.0 19.3 0.00 0.00 0.00 51 1020.0
20210919190205 26 336 8.0 16.1 0.00 0.00 0.00 53 1020.1
20210919185705 26 37 11.3 19.3 0.00 0.00 0.00 51 1020.1
20210919185205 26 23 9.7 19.3 0.00 0.00 0.00 51 1020.1
20210919184705 26 15 9.7 24.1 0.00 0.00 0.00 52 1020.2
20210919184205 26 40 11.3 20.9 0.00 0.00 0.00 55 1020.3
20210919183705 26 12 11.3 22.5 0.00 0.00 0.00 52 1020.3
20210919183205 26 348 9.7 20.9 0.00 0.00 0.00 56 1020.3
20210919182704 26 23 9.7 16.1 0.00 0.00 0.00 53 1020.2
20210919182205 26 306 8.0 19.3 0.00 0.00 0.00 54 1020.2
20210919181705 25 38 4.8 14.5 0.00 0.00 0.00 58 1020.3
20210919181205 25 358 8.0 19.3 0.00 0.00 0.00 57 1020.3
20210919180705 25 355 9.7 19.3 0.00 0.00 0.00 56 1020.4
20210919180205 25 339 8.0 16.1 0.00 0.00 0.00 58 1020.5
20210919175705 25 56 8.0 16.1 0.00 0.00 0.00 60 1020.5
20210919175205 25 30 8.0 19.3 0.00 0.00 0.00 61 1020.5
20210919174705 25 334 8.0 19.3 0.00 0.00 0.00 60 1020.5
20210919174205 25 358 8.0 19.3 0.00 0.00 0.00 59 1020.5
20210919173704 25 347 4.8 19.3 0.00 0.00 0.00 61 1020.5
20210919173204 25 18 8.0 16.1 0.00 0.00 0.00 59 1020.5
20210919172704 25 8 3.2 9.7 0.00 0.00 0.00 58 1020.5
20210919172205 25 351 3.2 19.3 0.00 0.00 0.00 56 1020.5
20210919171705 25 3 9.7 16.1 0.00 0.00 0.00 58 1020.6
20210919171205 25 329 11.3 19.3 0.00 0.00 0.00 55 1020.6
20210919170705 25 0 11.3 22.5 0.00 0.00 0.00 59 1020.6
20210919170205 25 346 4.8 14.5 0.00 0.00 0.00 60 1020.7
20210919165705 25 32 11.3 20.9 0.00 0.00 0.00 56 1020.7
20210919165205 25 17 11.3 24.1 0.00 0.00 0.00 57 1020.6
20210919164705 25 355 9.7 16.1 0.00 0.00 0.00 56 1020.7
20210919164205 25 45 9.7 19.3 0.00 0.00 0.00 57 1020.6
20210919163705 25 22 8.0 19.3 0.00 0.00 0.00 62 1020.7
20210919163204 25 340 8.0 19.3 0.00 0.00 0.00 58 1020.7
20210919162704 25 8 9.7 19.3 0.00 0.00 0.00 62 1020.7
20210919162205 25 42 9.7 19.3 0.00 0.00 0.00 62 1020.7
20210919161705 25 40 9.7 19.3 0.00 0.00 0.00 63 1020.7
20210919161204 25 30 9.7 19.3 0.00 0.00 0.00 61 1020.7
20210919160704 25 2 4.8 14.5 0.00 0.00 0.00 60 1020.7
20210919160204 25 353 8.0 19.3 0.00 0.00 0.00 60 1020.8
20210919155704 25 25 11.3 19.3 0.00 0.00 0.00 62 1020.8
20210919155204 24 7 9.7 19.3 0.00 0.00 0.00 64 1020.9
20210919154704 24 33 8.0 19.3 0.00 0.00 0.00 66 1020.9
20210919154204 24 7 8.0 16.1 0.00 0.00 0.00 61 1020.9
20210919153704 24 333 8.0 22.5 0.00 0.00 0.00 62 1020.9
20210919153204 24 22 9.7 19.3 0.00 0.00 0.00 63 1020.9
20210919152705 24 321 11.3 19.3 0.00 0.00 0.00 62 1021.0
20210919152205 24 346 11.3 20.9 0.00 0.00 0.00 59 1021.0
20210919151705 24 338 9.7 19.3 0.00 0.00 0.00 61 1021.0
20210919151204 24 339 9.7 16.1 0.00 0.00 0.00 62 1021.0
20210919150704 24 27 9.7 19.3 0.00 0.00 0.00 60 1021.0
20210919150205 24 33 9.7 19.3 0.00 0.00 0.00 61 1021.0
20210919145704 24 358 8.0 16.1 0.00 0.00 0.00 63 1021.0
20210919145204 23 5 8.0 19.3 0.00 0.00 0.00 61 1020.9
20210919144705 23 5 9.7 19.3 0.00 0.00 0.00 63 1020.9
20210919144204 23 1 8.0 19.3 0.00 0.00 0.00 65 1020.9
20210919143704 23 338 9.7 19.3 0.00 0.00 0.00 64 1021.0
20210919143204 23 355 9.7 19.3 0.00 0.00 0.00 64 1020.9
20210919142705 23 330 6.4 14.5 0.00 0.00 0.00 66 1021.0
20210919142204 23 341 8.0 19.3 0.00 0.00 0.00 67 1021.0
20210919141704 23 31 6.4 19.3 0.00 0.00 0.00 66 1021.0
20210919141204 23 28 9.7 16.1 0.00 0.00 0.00 67 1021.1
20210919140705 23 350 6.4 16.1 0.00 0.00 0.00 66 1021.0
20210919140204 23 3 9.7 19.3 0.00 0.00 0.00 65 1020.9
20210919135705 23 20 8.0 19.3 0.00 0.00 0.00 63 1020.9
20210919135204 23 7 8.0 19.3 0.00 0.00 0.00 69 1020.8
20210919134704 23 32 11.3 19.3 0.00 0.00 0.00 68 1020.7
20210919134205 23 45 9.7 16.1 0.00 0.00 0.00 68 1020.6
20210919133704 23 36 11.3 20.9 0.00 0.00 0.00 70 1020.6
20210919133204 23 348 11.3 19.3 0.00 0.00 0.00 69 1020.5
20210919132705 23 3 8.0 14.5 0.00 0.00 0.00 67 1020.4
20210919132205 22 36 12.9 20.9 0.00 0.00 0.00 66 1020.5
20210919131704 22 351 4.8 16.1 0.00 0.00 0.00 65 1020.3
20210919131205 22 355 9.7 16.1 0.00 0.00 0.00 68 1020.2
20210919130704 22 1 8.0 19.3 0.00 0.00 0.00 66 1020.1
20210919130205 22 34 9.7 24.1 0.00 0.00 0.00 69 1020.1
20210919125704 22 18 11.3 22.5 0.00 0.00 0.00 70 1020.1
20210919125205 22 9 9.7 19.3 0.00 0.00 0.00 72 1020.0
20210919124704 22 8 11.3 20.9 0.00 0.00 0.00 75 1019.9
20210919124205 22 32 8.0 19.3 0.00 0.00 0.00 80 1019.9
20210919123705 22 21 9.7 20.9 0.00 0.00 0.00 82 1019.8
20210919123205 22 32 8.0 14.5 0.00 0.00 0.00 83 1019.7
20210919122704 22 45 9.7 19.3 0.00 0.00 0.00 83 1019.7
20210919122205 22 33 8.0 16.1 0.00 0.00 0.00 84 1019.6
20210919121704 21 45 8.0 11.3 0.00 0.00 0.00 84 1019.6
20210919121205 21 43 6.4 14.5 0.00 0.00 0.00 84 1019.6
20210919120705 21 46 8.0 14.5 0.00 0.00 0.00 84 1019.8
20210919120204 21 28 6.4 16.1 0.00 0.00 0.00 84 1019.8
20210919115704 21 13 8.0 14.5 0.00 0.00 0.00 85 1019.7
20210919115204 21 16 8.0 14.5 0.00 0.00 0.00 86 1019.8
20210919114704 21 22 9.7 19.3 0.00 0.00 0.00 87 1019.6
20210919114205 21 36 11.3 19.3 0.00 0.00 0.00 88 1019.5
20210919113704 21 340 8.0 19.3 0.00 0.00 0.00 89 1019.4
20210919113204 20 45 6.4 12.9 0.00 0.00 0.00 90 1019.4
20210919112705 20 33 11.3 20.9 0.00 0.00 0.00 91 1019.4
20210919112204 20 18 9.7 20.9 0.00 0.00 0.00 91 1019.4
20210919111704 20 29 8.0 16.1 0.00 0.00 0.00 92 1019.4
20210919111204 20 351 9.7 16.1 0.00 0.00 0.00 92 1019.3
20210919110704 20 25 8.0 14.5 0.00 0.00 0.00 92 1019.3
20210919110205 20 45 6.4 11.3 0.00 0.00 0.00 92 1019.2
20210919105704 20 15 8.0 14.5 0.00 0.00 0.00 93 1019.2
20210919105204 20 40 6.4 14.5 0.00 0.00 0.00 93 1019.1
20210919104704 20 41 8.0 9.7 0.00 0.00 0.00 93 1019.0
20210919104204 21 37 4.8 14.5 0.00 0.00 0.00 94 1018.9
20210919103704 21 45 8.0 12.9 0.00 0.00 0.00 94 1018.8
20210919103205 21 43 4.8 11.3 0.00 0.00 0.00 94 1018.8
20210919102705 21 52 4.8 8.0 0.00 0.00 0.00 94 1018.7
20210919102205 21 14 4.8 9.7 0.00 0.00 0.00 95 1018.6
20210919101704 21 33 6.4 11.3 0.00 0.00 0.00 95 1018.6
20210919101204 21 33 4.8 11.3 0.00 0.00 0.00 96 1018.5
20210919100704 20 45 6.4 9.7 0.00 0.00 0.00 96 1018.5
20210919100205 20 44 8.0 14.5 0.00 0.00 0.00 96 1018.5
20210919095705 20 37 8.0 14.5 0.00 0.00 0.00 97 1018.5
20210919095205 20 35 4.8 14.5 0.00 0.00 0.00 97 1018.4
20210919094705 20 35 8.0 12.9 0.00 0.00 0.00 97 1018.4
20210919094205 20 37 8.0 11.3 0.00 0.00 0.00 97 1018.4
20210919093704 20 37 8.0 14.5 0.00 0.00 0.00 97 1018.2
20210919093205 20 32 6.4 9.7 0.00 0.00 0.00 97 1018.0
20210919092705 20 43 6.4 11.3 0.00 0.00 0.00 97 1018.0
20210919092204 20 41 8.0 14.5 0.00 0.00 0.00 97 1017.8
20210919091704 20 38 6.4 9.7 0.00 0.00 0.00 100 1017.7
20210919091205 21 14 4.8 11.3 0.00 0.00 0.00 100 1017.7
20210919090705 21 11 4.8 12.9 0.00 0.00 0.00 100 1017.7
20210919090205 21 45 4.8 8.0 0.00 0.00 0.00 100 1017.6
20210919085704 21 25 4.8 12.9 0.00 0.00 0.00 100 1017.6
20210919085204 21 43 4.8 11.3 0.00 0.00 0.00 100 1017.6
20210919084705 21 51 4.8 11.3 0.00 0.00 0.00 100 1017.8
20210919084205 21 43 6.4 12.9 0.00 0.00 0.00 100 1017.7
20210919083705 21 37 4.8 14.5 0.00 0.00 0.00 100 1017.7
20210919083205 21 25 3.2 4.8 0.00 0.00 0.00 100 1017.6
20210919082705 21 265 0.0 0.0 0.00 0.00 0.00 100 1017.5
20210919082205 22 223 0.0 0.0 0.00 0.00 0.00 100 1017.4
20210919081705 22 223 0.0 0.0 0.00 0.00 0.00 100 1017.4
20210919081204 22 223 0.0 0.0 0.00 0.00 0.00 100 1017.2
20210919080705 22 223 0.0 0.0 0.00 0.00 0.00 100 1017.3
20210919080204 22 223 0.0 0.0 0.00 0.00 0.00 100 1017.3
20210919075704 22 223 0.0 0.0 0.00 0.00 0.00 100 1017.3
20210919075204 22 223 0.0 0.0 0.00 0.00 0.00 100 1017.3
20210919074704 22 223 0.0 0.0 0.00 0.00 0.00 100 1017.3
20210919074204 22 222 0.0 0.0 0.00 0.00 0.00 100 1017.3
20210919073704 22 222 0.0 0.0 0.00 0.00 0.00 100 1017.3
20210919073204 22 222 0.0 0.0 0.00 0.00 0.00 100 1017.3
20210919072704 22 222 0.0 0.0 0.00 0.00 0.00 100 1017.3
20210919072205 22 222 0.0 1.6 0.00 0.00 0.00 100 1017.3
20210919071704 21 222 0.0 3.2 0.00 0.00 0.00 100 1017.3
20210919071204 21 221 0.0 0.0 0.00 0.00 0.00 100 1017.4
20210919070704 21 203 0.0 0.0 0.00 0.00 0.00 100 1017.4
20210919070205 21 200 0.0 0.0 0.00 0.00 0.00 100 1017.4
20210919065705 21 200 0.0 0.0 0.00 0.00 0.00 100 1017.4
20210919065204 21 200 0.0 0.0 0.00 0.00 0.00 100 1017.4
20210919064704 21 200 0.0 0.0 0.00 0.00 0.00 100 1017.4
20210919064204 21 200 0.0 0.0 0.00 0.00 0.00 100 1017.4
20210919063705 21 200 0.0 0.0 0.00 0.00 0.00 100 1017.3
20210919063204 21 200 0.0 0.0 0.00 0.00 0.00 100 1017.3
20210919062704 21 200 0.0 0.0 0.00 0.00 0.00 100 1017.3
20210919062205 21 200 0.0 0.0 0.00 0.00 0.00 100 1017.2
20210919061705 21 200 0.0 0.0 0.00 0.00 0.00 100 1017.1
20210919061205 21 200 0.0 0.0 0.00 0.00 0.00 100 1017.2
20210919060705 21 199 0.0 0.0 0.00 0.00 0.00 100 1017.2
20210919060205 21 199 0.0 0.0 0.00 0.00 0.00 100 1017.2
20210919055704 22 199 0.0 0.0 0.00 0.00 0.00 100 1017.2
20210919055205 22 200 0.0 0.0 0.00 0.00 0.00 100 1017.3
20210919054704 22 200 0.0 0.0 0.00 0.00 0.00 100 1017.3
20210919054204 22 200 0.0 0.0 0.00 0.00 0.00 100 1017.2
20210919053705 22 199 0.0 0.0 0.00 0.00 0.00 100 1017.2
20210919053204 22 199 0.0 0.0 0.00 0.00 0.00 100 1017.1
20210919052704 22 199 0.0 0.0 0.00 0.00 0.00 100 1017.2
20210919052205 22 199 0.0 0.0 0.00 0.00 0.00 100 1017.2
20210919051705 22 199 0.0 0.0 0.00 0.00 0.00 100 1017.1
20210919051205 22 199 0.0 0.0 0.00 0.00 0.00 100 1017.1
20210919050705 22 199 0.0 0.0 0.00 0.00 0.00 100 1017.2
20210919050204 22 199 0.0 0.0 0.00 0.00 0.00 100 1017.1